Helicity
5 8 12 24 24 18 2 10 19 -9 -32 -4 -12 39 64 76 109 105 110 87 66 88 106 103 90 46 17 46 58 25 20 49 51 39 48 39 -31 2 6 47 6 68 84 75
10 2 15 25 16 12 23 23 21 2 -19 22 28 50 73 90 99 123 116 88 85 74 55 63 14 0 22 21 16 15 51 44 32 -9 19 112 31 49 20 -1 -22 96 31 51
11 20 29 22 16 19 35 28 40 24 24 31 60 46 84 102 72 68 83 67 17 -4 8 -10 26 -18 9 27 14 29 22 22 22 49 49 -7 74 24 66 105 -1 -15 36 109
19 25 25 21 8 13 30 35 35 21 30 35 54 39 78 96 97 87 48 23 31 11 15 -22 -19 -4 37 31 39 13 11 -3 16 36 51 40 7 21 -21 47 107 105 101 53
32 22 20 4 -5 -6 23 39 29 25 67 54 29 46 87 78 98 86 63 11 1 -12 -7 16 -13 30 35 12 68 44 13 19 -3 -6 0 28 41 26 -4 11 44 97 105 112
32 24 14 -9 -18 1 21 13 22 34 47 40 2 89 108 86 84 38 -14 8 4 -8 -1 11 35 25 84 56 20 16 12 -3 -3 4 25 26 36 70 21 5 -8 21 103 75
25 20 12 -6 -27 -1 -8 29 41 34 29 15 49 84 66 40 45 14 -33 -1 -7 -1 29 50 38 94 87 47 31 21 28 20 3 -2 8 -32 -11 29 57 56 42 62 42 33
30 20 11 -11 -29 -10 13 14 26 21 42 59 65 51 29 32 6 6 -19 -3 -4 11 34 8 18 15 -9 14 5 -7 -9 -4 -5 5 -26 -2 27 44 101 106 73 42 57 91
35 19 0 -3 -6 -31 -14 24 19 38 46 59 72 49 27 16 14 8 9 -4 13 -9 2 10 33 2 8 -8 -2 13 59 85 16 68 2 5 31 -24 -25 34 53 121 147 122
26 15 15 4 -2 -27 -23 18 20 47 49 62 35 34 36 -8 -20 -27 -17 -30 -2 -16 -13 8 7 14 -12 -6 38 108 144 56 106 74 68 39 81 49 12 -4 21 1 -23 -46
25 20 14 15 -1 -7 -13 25 15 45 42 41 29 0 -13 -18 -20 -29 -42 -7 18 -24 -6 -9 -13 -1 -19 17 101 100 87 71 57 20 30 24 -8 39 -25 6 15 -87 -42 -62
33 24 6 21 10 8 -3 29 20 21 33 32 -2 -14 -46 -48 -49 -39 -4 -7 -21 -51 -22 -14 -13 4 -14 21 84 9 47 67 148 55 -7 5 -42 -29 4 10 20 -7 -8 22
55 14 -10 21 15 14 -6 39 36 33 42 19 24 14 18 -12 -11 -4 -7 29 19 -43 -7 -13 -18 -2 -20 46 54 34 33 33 77 105 55 86 44 64 20 15 34 32 25 14
-8 -1 -4 29 20 19 5 32 19 17 28 58 63 23 -2 -6 -4 13 15 -6 21 -8 -8 -10 -13 -15 -17 18 50 68 2 -15 42 59 51 83 59 55 43 40 24 28 34 60
26 11 41 33 24 23 9 17 15 7 16 66 33 -20 -8 3 20 20 17 22 -15 -25 -17 -12 -11 -24 -19 -12 17 6 -29 -41 -7 19 16 42 71 69 23 21 28 17 7 21
35 46 44 40 32 44 68 43 20 15 27 34 76 68 10 15 16 41 38 30 4 -11 19 -1 -13 -19 -27 -17 -21 32 43 -27 -37 10 28 14 -3 -4 -8 2 4 4 19 28
47 50 40 35 42 27 73 73 47 9 27 35 51 47 41 27 34 32 30 11 18 20 23 21 3 -14 -28 -5 5 29 1 -31 -38 -5 -3 -18 5 3 11 14 10 16 32 22
40 56 46 47 24 57 47 31 20 7 30 32 44 39 15 22 18 23 29 16 34 11 20 5 -17 -16 -29 -23 42 33 10 -25 -29 -4 -23 -10 -2 -5 2 -2 4 7 15 8
56 58 61 89 102 82 64 30 7 21 51 46 43 48 36 5 -14 7 16 21 9 -12 -3 -5 -20 -22 -26 43 57 42 5 -1 0 0 -4 7 9 6 9 10 15 12 10 7
74 180 204 171 92 67 57 46 66 59 56 56 30 6 4 5 10 -2 11 -9 1 -2 -7 -2 -16 10 100 105 82 38 24 21 23 23 22 13 13 17 20 22 24 19 18 12
224 234 181 90 51 59 68 97 100 90 44 20 25 20 5 42 46 33 23 13 1 5 5 -3 -14 25 62 50 46 47 52 46 41 34 33 27 22 26 23 21 20 19 16 19
177 145 101 73 68 117 127 119 104 84 36 43 33 29 33 66 61 54 32 15 16 19 -4 5 8 44 59 39 46 56 57 46 40 40 40 38 33 30 23 26 29 25 16 26
165 122 124 151 100 138 149 126 171 87 35 34 46 48 60 64 49 64 48 21 10 26 10 17 54 33 56 53 49 44 50 56 52 57 58 47 43 44 46 47 53 46 52 57
170 182 161 153 115 153 107 94 62 28 25 16 29 59 48 55 64 57 22 12 14 -18 -24 17 49 54 50 48 42 35 56 53 46 48 50 53 52 52 51 57 48 57 67 72
160 114 117 107 70 91 118 86 65 68 75 71 63 52 42 55 45 34 35 8 -12 -9 17 37 56 43 44 57 62 70 71 58 52 54 50 46 39 28 24 35 57 78 95 109
85 66 91 103 103 27 56 71 93 62 65 54 72 79 42 32 48 28 16 27 2 22 53 63 46 66 70 77 79 72 64 52 44 44 34 36 32 33 26 33 75 89 114 133
57 88 49 48 100 88 79 69 43 54 73 73 84 72 47 48 37 38 55 59 83 70 80 94 122 81 88 94 84 82 69 62 53 39 39 40 38 1 19 90 98 91 96 106
Wind_Speed
9 13 15 24 25 25 26 25 30 37 39 38 40 45 46 43 44 44 46 46 48 55 59 64 66 65 54 59 60 63 62 58 69 75 64 49 49 48 50 67 67 73 78 63
7 12 15 25 24 25 24 24 28 35 36 41 42 43 43 42 45 47 47 49 49 52 58 64 54 53 52 52 56 48 51 43 60 63 62 34 50 48 46 50 51 64 69 50
5 11 20 22 21 25 27 24 29 34 37 40 41 42 45 47 45 45 40 45 45 50 54 46 44 48 45 48 61 69 55 58 62 66 64 47 64 57 58 56 58 57 53 31
19 20 22 21 19 23 25 28 31 32 36 40 40 40 41 45 49 40 39 44 45 57 45 48 49 62 62 61 51 22 7 48 64 71 79 78 74 72 67 65 65 67 62 48
31 21 19 23 19 22 26 27 29 31 33 36 37 39 42 43 49 43 43 45 49 45 41 39 52 62 57 54 39 43 21 50 61 69 72 77 86 83 75 73 73 75 74 76
21 17 17 15 15 22 26 26 27 29 32 33 35 39 42 42 45 35 33 35 35 39 49 53 50 48 45 44 49 53 55 58 59 68 65 65 73 76 80 83 78 76 77 75
21 14 12 15 15 26 24 28 26 30 31 31 36 36 37 36 37 35 31 31 34 39 50 48 38 34 31 28 32 36 36 37 42 62 62 61 56 47 60 64 70 73 76 74
16 14 11 13 14 24 25 24 28 29 32 34 35 33 33 31 28 29 31 31 37 43 40 32 26 26 29 23 19 22 30 38 33 43 51 53 56 42 41 53 67 66 71 73
14 12 11 11 12 17 22 25 29 30 32 34 34 31 29 32 32 30 29 30 43 39 32 30 30 27 28 27 25 21 27 29 33 30 43 41 25 27 34 51 55 45 56 66
16 10 7 6 11 14 20 23 26 30 32 33 30 30 32 29 28 29 30 36 39 34 33 30 27 27 23 21 16 14 24 24 23 30 29 30 44 49 44 38 38 41 42 49
20 14 4 3 9 13 18 23 21 29 30 31 25 23 21 23 24 28 33 29 29 32 29 29 27 27 22 18 21 16 12 11 24 25 29 13 61 36 28 35 40 37 34 39
29 16 6 3 6 12 14 24 22 25 26 29 29 22 14 13 15 20 23 23 36 34 32 31 31 31 27 23 20 19 16 7 13 19 33 38 38 30 31 37 42 40 40 34
19 21 8 2 3 10 12 22 21 26 31 31 15 18 10 11 13 16 17 22 37 37 35 37 36 33 34 29 29 25 21 20 14 19 25 27 26 22 28 32 23 28 25 33
21 15 8 5 3 7 10 18 19 22 27 35 29 24 18 16 12 13 16 43 46 47 45 45 43 39 38 37 35 35 34 23 25 24 32 27 22 21 20 24 26 30 32 43
20 14 10 7 3 3 7 19 19 21 26 35 30 27 12 7 12 6 8 17 56 53 48 47 47 44 41 39 38 35 36 29 30 28 37 30 28 30 32 36 40 42 44 47
21 15 13 9 6 9 16 27 21 16 17 31 34 34 22 17 15 6 5 23 51 52 46 48 46 47 41 37 38 39 43 42 37 39 39 36 35 33 44 45 48 52 54 57
20 16 15 8 3 1 22 29 27 15 17 28 33 29 24 21 22 18 13 32 40 45 45 52 54 51 46 37 41 39 40 39 38 43 43 39 39 42 48 53 56 56 57 59
25 21 13 9 5 18 23 20 24 18 20 27 30 27 23 19 19 20 18 33 34 44 47 48 49 46 41 40 36 40 43 39 40 46 42 42 40 49 53 56 59 58 60 62
20 15 9 8 21 22 22 12 15 21 25 28 25 25 26 21 20 24 27 33 39 40 46 47 43 46 45 39 41 44 43 44 45 45 47 51 51 54 55 57 60 61 62 63
19 13 21 26 20 11 9 21 20 22 21 23 23 14 17 19 21 22 33 39 42 42 45 35 44 46 33 37 41 42 44 46 48 49 50 53 54 57 58 59 60 61 62 62
26 24 23 18 4 13 20 23 21 21 26 20 20 2 3 35 28 43 40 39 40 42 37 40 42 38 35 36 37 40 43 45 45 46 48 51 54 57 58 60 60 61 62 61
25 16 13 12 21 26 26 26 24 21 26 18 19 19 16 38 36 38 39 40 40 43 33 41 42 36 33 36 37 38 41 43 44 46 49 51 54 57 59 60 61 62 62 61
20 25 23 26 25 31 32 27 23 22 27 17 16 24 23 31 34 30 40 44 48 42 44 45 42 35 33 35 36 37 40 44 46 48 51 54 57 58 60 62 62 63 62 62
30 31 35 34 31 35 29 24 26 27 23 13 12 27 31 30 29 40 45 46 45 48 49 45 35 32 34 35 38 38 40 44 48 51 55 57 60 62 59 61 63 64 64 63
35 37 38 37 34 34 43 38 27 22 20 12 20 29 34 35 40 40 44 44 46 45 43 37 31 31 32 34 39 41 44 46 48 51 55 57 60 61 63 66 65 64 62 60
38 40 40 38 55 46 38 34 32 31 20 15 33 35 41 48 43 43 46 45 46 40 34 29 28 31 33 36 38 41 44 47 50 53 56 60 62 64 68 68 63 64 60 59
46 40 42 43 45 42 35 34 30 31 17 37 37 42 48 38 45 46 41 46 39 31 31 34 35 34 36 39 43 45 48 51 53 55 58 61 62 64 66 68 65 64 58 54
Wind_Direction
256 274 291 285 287 301 305 328 329 339 347 350 348 343 345 350 348 350 345 342 337 332 332 325 321 318 316 318 318 309 303 302 286 277 279 294 281 280 278 264 260 263 264 268
243 267 278 276 288 298 319 340 341 356 352 345 347 353 352 356 352 349 348 343 340 338 330 326 327 323 322 320 313 309 313 304 293 282 272 282 280 278 283 282 278 269 260 266
239 267 266 280 299 297 316 335 341 349 356 358 357 355 355 354 356 352 356 347 344 343 338 338 337 331 330 323 308 284 297 288 282 277 275 287 277 273 270 271 270 270 267 263
245 253 264 284 302 303 328 335 337 345 347 354 2 2 3 0 357 4 1 357 356 349 347 343 341 321 300 286 264 342 302 290 283 281 272 275 275 269 264 266 266 264 265 270
239 251 274 278 303 318 333 338 343 353 3 8 6 7 7 3 1 3 2 359 358 360 357 351 336 286 281 291 250 288 343 300 292 284 280 277 270 265 263 262 259 261 265 268
238 256 279 294 319 329 341 356 3 4 5 9 7 8 7 7 10 18 16 9 8 5 339 278 263 255 245 238 244 249 261 286 298 285 291 290 276 268 264 262 262 261 266 267
240 259 288 296 320 324 352 353 12 2 5 10 8 12 13 13 17 14 19 24 14 322 277 269 249 227 211 208 212 208 220 230 242 280 280 280 285 291 279 273 269 269 270 273
231 255 286 312 337 321 354 23 12 11 9 12 13 15 18 26 30 26 25 29 11 275 274 261 241 236 205 207 202 215 226 235 222 313 285 268 280 311 304 287 275 277 278 279
233 257 283 319 6 348 7 18 17 19 15 11 21 24 30 24 26 31 38 36 291 279 258 248 249 257 269 258 261 229 231 222 204 197 280 300 42 217 252 289 281 305 296 294
239 269 284 336 11 54 19 16 19 15 12 21 31 25 26 38 40 32 39 29 358 274 267 249 243 256 260 249 236 242 276 268 147 185 179 197 297 291 272 277 287 289 280 279
244 266 301 0 21 70 40 17 36 17 12 21 41 41 45 48 51 37 35 47 335 269 254 239 248 233 245 215 245 204 150 275 282 245 186 272 324 275 255 264 273 270 270 280
245 256 278 352 19 89 64 9 34 26 23 20 31 39 60 66 68 50 61 58 254 255 248 250 245 245 246 250 219 248 155 212 216 229 298 301 308 270 274 288 297 282 290 287
223 247 268 309 7 94 89 11 25 20 10 8 30 32 76 122 141 135 76 53 279 268 279 258 251 243 261 251 250 244 235 250 175 261 290 285 313 309 312 306 281 290 280 313
222 236 254 252 324 99 96 4 25 21 20 3 21 23 38 44 109 135 151 220 281 276 270 256 249 242 256 256 250 254 259 248 266 246 294 287 270 301 300 305 312 314 309 336
227 239 240 252 302 67 59 354 9 11 9 359 8 6 23 47 164 104 138 291 260 257 260 254 248 259 256 254 253 252 286 262 270 260 290 268 261 286 303 311 317 318 323 323
235 243 236 252 296 111 339 331 350 12 31 7 5 9 25 33 28 72 66 315 265 251 260 256 258 241 247 255 261 308 330 315 287 280 281 271 279 276 311 311 315 327 334 341
231 234 235 226 194 295 319 330 348 33 38 9 4 13 35 34 25 35 40 291 266 254 262 252 244 245 251 234 249 288 290 286 277 293 298 295 296 297 311 323 332 346 350 350
236 229 228 240 229 298 308 333 352 32 19 12 4 10 25 45 45 50 25 268 268 253 258 260 246 264 226 245 280 292 299 280 285 303 302 299 295 325 336 345 348 349 347 347
206 205 217 257 278 289 310 345 355 348 349 354 5 11 16 38 41 25 288 263 254 257 254 256 264 241 232 266 280 296 290 297 294 295 321 332 339 340 343 345 348 345 341 344
173 210 258 273 275 323 325 318 324 334 339 335 341 12 14 14 359 9 265 246 250 255 260 274 261 267 319 325 322 320 319 318 318 324 326 326 330 333 338 340 341 339 339 341
232 249 264 295 190 294 296 305 310 325 328 337 341 261 14 279 289 243 248 260 260 259 268 267 267 281 308 324 329 333 341 337 335 336 336 335 332 336 333 333 334 335 337 341
234 252 279 271 276 285 287 293 306 314 319 331 343 348 305 266 267 269 276 279 274 263 276 271 273 298 326 322 329 337 338 339 338 337 334 333 334 334 334 335 335 334 335 339
233 254 260 269 271 273 279 279 295 303 306 330 351 314 290 270 268 288 274 265 260 272 269 272 287 306 330 329 330 332 334 329 331 335 338 339 339 342 341 338 339 337 337 337
244 246 254 261 271 274 277 282 280 280 310 344 358 285 279 270 270 267 257 258 257 244 245 270 303 312 319 323 324 334 343 342 341 338 338 341 339 340 345 342 338 334 332 332
238 253 257 255 273 273 256 266 273 288 298 332 309 285 270 263 260 266 257 250 242 248 258 283 311 319 329 334 334 339 342 344 344 344 342 343 340 342 338 331 332 333 333 334
241 247 251 252 232 239 256 261 267 282 294 311 284 276 261 250 256 256 252 255 255 270 298 329 341 337 338 345 349 348 346 345 343 341 340 338 338 337 330 328 334 332 334 332
238 243 235 234 236 247 256 257 273 281 296 270 275 264 248 261 255 259 271 269 295 317 329 326 330 338 344 344 342 341 343 341 341 340 339 337 337 334 332 333 334 332 334 336